User: anonymous   Login
Location: Unspecified
(0.0000°N, 0.0000°E)
Time: 13:01:36
(UTC+00:00)
Language:

SAR-Lupe-3 - Orbit

View from above orbital plane
View from above orbital plane
View from above satellite
View from above satellite

Ground track
Ground track

The orbit data is extracted from the following two-line orbital elements,

1 32283U 07053A   20173.03029600  .00000680  00000-0  25205-4 0    01
2 32283  98.0620 104.8496 0001342  33.5510 104.7125 15.27528784    03
Epoch (UTC): 21 June 2020 00:43:37
Eccentricity: 0.0001342
inclination: 98.0620°
perigee height: 482 km
apogee height: 484 km
right ascension of ascending node: 104.8496°
argument of perigee: 33.5510°
revolutions per day: 15.27528784
mean anomaly at epoch: 104.7125°
orbit number at epoch: 0

The dashed part of the orbit path shows where the satellite is in the earth's shadow,  

DLR